Content
SEND FEEDBACK

Daily
Averages
Monthly
Summary
United States of America

ST. LOUIS - SAINT LOUIS UNIVERSITY, MISSOURI


Home > North America > United States > Missouri
Elevation: 580 feet     Latitude: 38 38N     Longitude: 090 14W

WEATHER
 
SELECT A DAY
Number of Records: 188,475;   Date Range: 1/1/95 - 10/1/14
 
SHARE

PRINT THIS DATA

[ ← Previous Day ]
WEATHER ALMANAC - FEBRUARY 20, 2013
[ Next Day → ]
[ °C ]   °F
Weather ElementAverageHighLow
Temperature22.5 °F26.1 °F (1:53 pm)18 °F (5:53 am)
Dewpoint9.9 °F12.9 °F (8:53 pm)7 °F (4:53 am)
Humidity58.8 %74 % (10:53 pm)51 % (1:53 pm)
Barometer30.37 in30.43 in (8:53 am)30.32 in (3:53 am)
Wind Speed7.2 mph15 mph (3:53 am)
Wind Gust20.7 mph (1:53 am)
Weather ElementAverage
Visibility10 mi
Wind DirectionSSE (166.8 °)

Weather ElementTotal
Precipitation---
Heating Degree Days43 (Base 65)
Averaged from 19 records on February 20, 2013
WEATHER CONDITIONS BREAKOUT
WIND DIRECTION BREAKOUT
WEATHER BY HOUR - FEBRUARY 20, 2013
[ °C ]   °F
Local TimeTemperatureDewpointHumidityBarometerVisibilityWind DirectionWind SpeedGust SpeedPrecipitationEventsConditions
1:53 AM24.1 °F9.0 °F53 %30.34 in10.0 miNW (320°)12.7 mph20.7 mphClear
2:53 AM21.9 °F8.1 °F55 %30.33 in10.0 miNW (320°)11.5 mphClear
3:53 AM21.0 °F8.1 °F57 %30.32 in10.0 miNorth (350°)15.0 mphClear
4:53 AM19.9 °F7.0 °F57 %30.35 in10.0 miNNW (340°)5.8 mphClear
5:53 AM18.0 °F8.1 °F65 %30.37 in10.0 miNorth (10°)5.8 mphClear
7:53 AM19.9 °F9.0 °F62 %30.41 in10.0 miNorth (350°)6.9 mphClear
8:53 AM21.0 °F9.0 °F60 %30.43 in10.0 miNorth (350°)8.1 mphClear
9:53 AM21.9 °F9.0 °F58 %30.43 in10.0 miNNW (330°)5.8 mphClear
10:53 AM23.0 °F9.0 °F55 %30.43 in10.0 miNorth (10°)6.9 mphClear
11:53 AM25.0 °F10.0 °F53 %30.43 in10.0 miNorth (350°)6.9 mphClear
1:53 PM26.1 °F10.0 °F51 %30.38 in10.0 miNE (40°)6.9 mphClear
2:53 PM26.1 °F10.0 °F51 %30.36 in10.0 miNE (50°)6.9 mphClear
4:53 PM26.1 °F10.0 °F51 %30.34 in10.0 miNNE (20°)6.9 mphClear
5:53 PM26.1 °F10.0 °F51 %30.33 in10.0 miNE (50°)8.1 mphPartly Cloudy
6:53 PM24.1 °F10.9 °F57 %30.33 in10.0 miENE (70°)6.9 mphScattered Clouds
7:53 PM21.9 °F12.0 °F66 %30.34 in10.0 miENE (60°)3.5 mphClear
8:53 PM21.9 °F12.9 °F68 %30.35 in10.0 miNE (40°)4.6 mphOvercast
10:53 PM19.9 °F12.9 °F74 %30.34 in10.0 miENE (70°)4.6 mphClear
11:53 PM19.9 °F12.9 °F74 %30.34 in10.0 miNE (40°)3.5 mphClear
Hourly data recorded from KCPS, located miles away from St. Louis - Saint Louis University, Missouri







STORIES FROM OUR PARTNERS